Minot, ND

12:52 PM CDT on July 22, 2017 (GMT -0500)
Minot International

Weather History for KMOT - March, 2012

Change the Weather History Date:

Friday, March 30, 2012

  Actual Average Record
Temperature  
Mean Temperature 53 °F 35 °F  
Max Temperature 73 °F 45 °F 79 °F (1966)
Min Temperature 32 °F 25 °F -15 °F (1923)
Degree Days  
Heating Degree Days 12 30  
Month to date heating degree days 715 1106  
Since 1 July heating degree days 6134 7682  
Cooling Degree Days 0 0  
Month to date cooling degree days 0 0  
Year to date cooling degree days 0 0  
Growing Degree Days 2 (Base 50)    
Moisture  
Dew Point 35 °F    
Average Humidity 57    
Maximum Humidity 92    
Minimum Humidity 22    
Precipitation  
Precipitation 0.00 in 0.04 in 0.91 in (2006)
Month to date precipitation 0.73 0.80  
Year to date precipitation 0.96 1.71  
Sea Level Pressure  
Sea Level Pressure 29.62 in    
Wind  
Wind Speed 10 mph (South)    
Max Wind Speed 26 mph    
Max Gust Speed 33 mph    
Visibility 8 miles    
Events      
T = Trace of Precipitation, MM = Missing Value Source: NWS Daily Summary

Daily Weather History Graph

Daily Weather History Graph

Search for Another Location

Airport or City:

Trip Planner

Search our weather history database for the weather conditions in past years. The results will help you decide how hot, cold, wet, or windy it might be!

Date:

Astronomy

Mar. 30, 2012 Rise Set
Actual Time 7:26 AM CDT 8:13 PM CDT
Civil Twilight 6:54 AM CDT 8:45 PM CDT
Nautical Twilight 6:17 AM CDT 9:22 PM CDT
Astronomical Twilight 5:37 AM CDT 10:02 PM CDT
Moon 12:12 PM CDT (3/30) 3:13 AM CDT (3/30)
Length of Visible Light 13h 50m
Length of Day
12h 47m
Waxing Crescent, 49% of the Moon is Illuminated
Mar 30
Waxing Crescent
Mar 30
First Quarter
Apr 6
Full
Apr 13
Last Quarter
Apr 21
New

Hourly Weather History & Observations

Time (CDT) Temp. Windchill Dew Point Humidity Pressure Visibility Wind Dir Wind Speed Gust Speed Precip Events Conditions
12:54 AM 37.0 °F 33.3 °F 35.1 °F 93% 29.76 in 6.0 mi SE 4.6 mph - N/A   Clear
1:54 AM 35.1 °F - 34.0 °F 96% 29.75 in 5.0 mi Calm Calm - N/A   Clear
2:32 AM 32.0 °F - 30.2 °F 93% 29.70 in 1.8 mi Calm Calm - N/A   Clear
2:41 AM 35.6 °F - 33.8 °F 93% 29.70 in 3.0 mi Calm Calm - N/A   Clear
2:54 AM 35.1 °F - 33.1 °F 92% 29.74 in 4.0 mi Calm Calm - N/A   Clear
3:54 AM 32.0 °F - 30.0 °F 92% 29.72 in 3.0 mi Calm Calm - N/A   Clear
4:01 AM 33.8 °F - 32.0 °F 93% 29.68 in 2.5 mi Calm Calm - N/A   Clear
4:09 AM 33.8 °F 30.8 °F 32.0 °F 93% 29.68 in 4.0 mi ESE 3.5 mph - N/A   Clear
4:54 AM 37.0 °F 33.3 °F 33.1 °F 86% 29.70 in 10.0 mi SSE 4.6 mph - N/A   Clear
5:54 AM 42.1 °F 39.2 °F 33.1 °F 70% 29.68 in 10.0 mi SW 4.6 mph - N/A   Clear
6:54 AM 41.0 °F 35.8 °F 33.1 °F 73% 29.69 in 10.0 mi SSW 8.1 mph - N/A   Clear
7:54 AM 43.0 °F 36.8 °F 33.1 °F 68% 29.69 in 10.0 mi SSW 11.5 mph - N/A   Clear
8:54 AM 46.9 °F - 34.0 °F 61% 29.69 in 10.0 mi SW 5.8 mph - N/A   Clear
9:54 AM 51.1 °F - 36.0 °F 56% 29.68 in 10.0 mi SSE 9.2 mph - N/A   Clear
10:54 AM 55.9 °F - 37.9 °F 51% 29.68 in 10.0 mi South 13.8 mph 18.4 mph N/A   Clear
11:54 AM 60.1 °F - 39.0 °F 46% 29.65 in 10.0 mi South 17.3 mph 28.8 mph N/A   Clear
12:54 PM 62.1 °F - 37.0 °F 39% 29.62 in 10.0 mi South 21.9 mph 27.6 mph N/A   Clear
1:54 PM 66.0 °F - 34.0 °F 30% 29.60 in 10.0 mi South 24.2 mph 32.2 mph N/A   Clear
2:54 PM 66.9 °F - 36.0 °F 32% 29.59 in 10.0 mi SSE 19.6 mph 24.2 mph N/A   Clear
3:54 PM 71.1 °F - 37.0 °F 29% 29.54 in 10.0 mi SSE 18.4 mph - N/A   Clear
4:54 PM 72.0 °F - 37.0 °F 28% 29.52 in 10.0 mi South 18.4 mph 25.3 mph N/A   Clear
5:54 PM 72.0 °F - 30.9 °F 22% 29.49 in 10.0 mi SSW 13.8 mph - N/A   Clear
6:54 PM 69.1 °F - 33.1 °F 26% 29.49 in 10.0 mi South 10.4 mph - N/A   Clear
7:54 PM 64.0 °F - 36.0 °F 35% 29.50 in 10.0 mi SSE 8.1 mph - N/A   Clear
8:54 PM 57.0 °F - 37.0 °F 47% 29.50 in 10.0 mi SSE 3.5 mph - N/A   Clear
9:54 PM 59.0 °F - 35.1 °F 41% 29.50 in 10.0 mi SSE 11.5 mph - N/A   Clear
10:54 PM 57.9 °F - 37.9 °F 47% 29.48 in 10.0 mi South 8.1 mph - N/A   Clear
11:54 PM 57.9 °F - 36.0 °F 44% 29.47 in 10.0 mi SSW 8.1 mph - N/A   Clear